Content
SEND FEEDBACK

Daily
Averages
Monthly
Summary
France

RENNES, FRANCE


Home > Europe > France
Elevation: 121 feet     Latitude: 48 04N     Longitude: 001 43W

WEATHER
 
SELECT A DAY
Number of Records: 236,559;   Date Range: 7/1/96 - 8/10/14
 
SHARE

PRINT THIS DATA

[ ← Previous Day ]
WEATHER ALMANAC - APRIL 18, 2013
[ Next Day → ]
[ °C ]   °F
Weather ElementAverageHighLow
Temperature53.2 °F60.8 °F (2:30 pm)44.6 °F (11:30 pm)
Dewpoint42.8 °F48.2 °F (12:30 am)35.6 °F (2:00 pm)
Humidity68.7 %93 % (7:00 am)33 % (2:00 pm)
Barometer30.16 in30.30 in (11:00 pm)30.04 in (12:30 am)
Wind Speed11.6 mph19.6 mph (11:30 am)
Wind Gust29.9 mph (9:30 am)
Weather ElementAverage
Visibility6.9 mi
Wind DirectionWSW (251 °)

Weather ElementTotal
Precipitation---
Heating Degree Days12.3 (Base 65)
Growing Degree Days2.7 (Base 50)
Averaged from 51 records on April 18, 2013
WEATHER CONDITIONS BREAKOUT
WIND DIRECTION BREAKOUT
WEATHER BY HOUR - APRIL 18, 2013
[ °C ]   °F
Local TimeTemperatureDewpointHumidityBarometerVisibilityWind DirectionWind SpeedGust SpeedPrecipitationEventsConditions
12:30 AM55.4 °F48.2 °F77 %30.04 in6.2 miWSW (250°)10.4 mphMostly Cloudy
1:00 AM53.6 °F48.2 °F82 %30.04 in6.2 miWSW (250°)9.2 mph
1:30 AM53.6 °F46.4 °F77 %30.06 in6.2 miWSW (250°)9.2 mph
2:00 AM51.0 °F47.0 °F80 %30.09 in9.0 miWSW (240°)8.1 mphClear
2:00 AM51.8 °F46.4 °F82 %30.06 in6.2 miWSW (240°)8.1 mph
2:30 AM50.0 °F46.4 °F87 %30.06 in6.2 miWSW (250°)9.2 mph
3:00 AM50.0 °F46.4 °F87 %30.09 in6.2 miWSW (240°)9.2 mph
3:30 AM50.0 °F44.6 °F82 %30.09 in6.2 miSW (230°)9.2 mphPartly Cloudy
4:00 AM48.2 °F44.6 °F87 %30.09 in6.2 miSW (220°)6.9 mphMostly Cloudy
4:30 AM50.0 °F44.6 °F82 %30.09 in6.2 miSW (220°)6.9 mphOvercast
5:00 AM50.0 °F44.6 °F82 %30.09 in6.2 miSSW (210°)6.9 mphOvercast
5:30 AM48.2 °F44.6 °F87 %30.09 in6.2 miSW (220°)6.9 mphOvercast
6:00 AM48.2 °F44.6 °F87 %30.12 in6.2 miSW (220°)6.9 mphOvercast
6:30 AM48.2 °F44.6 °F87 %30.12 in6.2 miSSW (210°)6.9 mphOvercast
7:00 AM46.4 °F44.6 °F93 %30.12 in6.2 miSSW (200°)6.9 mphOvercast
7:30 AM48.2 °F44.6 °F87 %30.12 in6.2 miSSW (210°)8.1 mphScattered Clouds
8:00 AM48.0 °F45.0 °F84 %30.16 in8.0 miSSW (210°)8.1 mphClear
8:00 AM48.2 °F44.6 °F87 %30.15 in6.2 miSSW (210°)8.1 mph
8:30 AM50.0 °F44.6 °F82 %30.15 in6.2 miSW (220°)9.2 mph
9:00 AM51.8 °F44.6 °F76 %30.15 in6.2 miSW (230°)11.5 mph
9:30 AM53.6 °F44.6 °F72 %30.15 in6.2 miWSW (240°)16.1 mph29.9 mphPartly Cloudy
10:00 AM53.6 °F42.8 °F67 %30.18 in6.2 miWSW (240°)16.1 mphMostly Cloudy
10:30 AM55.4 °F42.8 °F63 %30.18 in6.2 miWSW (250°)15.0 mphMostly Cloudy
11:00 AM55.4 °F41.0 °F58 %30.18 in6.2 miWSW (250°)17.3 mphMostly Cloudy
11:30 AM57.2 °F39.2 °F51 %30.18 in6.2 miWSW (250°)19.6 mphMostly Cloudy
12:00 PM55.4 °F37.4 °F51 %30.18 in6.2 miWest (260°)19.6 mphScattered Clouds
12:30 PM57.2 °F41.0 °F55 %30.18 in6.2 miWSW (240°)16.1 mphScattered Clouds
1:00 PM59.0 °F41.0 °F51 %30.18 in6.2 miSW (230°)18.4 mphMostly Cloudy
1:30 PM59.0 °F41.0 °F51 %30.18 in6.2 miSW (230°)17.3 mphMostly Cloudy
2:00 PM58.0 °F37.0 °F33 %30.20 in12.0 miWest (260°)19.6 mphClear
2:00 PM59.0 °F35.6 °F42 %30.18 in6.2 miWSW (250°)19.6 mphMostly Cloudy
2:30 PM60.8 °F41.0 °F48 %30.18 in6.2 miSW (230°)17.3 mph
3:00 PM59.0 °F39.2 °F48 %30.18 in6.2 miWSW (240°)15.0 mph
3:30 PM60.8 °F41.0 °F48 %30.18 in6.2 miWSW (240°)19.6 mphMostly Cloudy
4:00 PM60.8 °F41.0 °F48 %30.18 in6.2 miWSW (250°)17.3 mph
4:30 PM59.0 °F41.0 °F51 %30.18 in6.2 miSW (230°)16.1 mphPartly Cloudy
5:00 PM57.2 °F42.8 °F59 %30.18 in6.2 miWSW (240°)19.6 mphPartly Cloudy
5:30 PM55.4 °F44.6 °F67 %30.21 in6.2 miWest (260°)16.1 mphMostly Cloudy
6:00 PM55.4 °F46.4 °F72 %30.18 in6.2 miWSW (250°)10.4 mphScattered Clouds
6:30 PM55.4 °F42.8 °F63 %30.21 in6.2 miWSW (240°)13.8 mphRainLight Rain
7:00 PM55.4 °F44.6 °F67 %30.21 in6.2 miSW (230°)10.4 mphMostly Cloudy
7:30 PM55.4 °F44.6 °F67 %30.21 in6.2 miWest (260°)10.4 mph
8:00 PM56.0 °F43.0 °F51 %30.23 in34.0 miNW (310°)6.9 mphClear
8:00 PM57.2 °F42.8 °F59 %30.21 in6.2 miNW (310°)6.9 mph
8:30 PM53.6 °F39.2 °F58 %30.24 in6.2 miNW (320°)11.5 mphMostly Cloudy
9:00 PM50.0 °F39.2 °F66 %30.24 in6.2 miNW (320°)6.9 mph
9:30 PM50.0 °F39.2 °F66 %30.24 in6.2 miNorth (350°)5.8 mphPartly Cloudy
10:00 PM48.2 °F39.2 °F71 %30.27 in6.2 miNNW (330°)4.6 mph
10:30 PM46.4 °F39.2 °F76 %30.27 in6.2 miNNW (330°)5.8 mphScattered Clouds
11:00 PM48.2 °F39.2 °F71 %30.30 in6.2 miNW (310°)9.2 mph
11:30 PM44.6 °F39.2 °F81 %30.30 in6.2 miNW (320°)5.8 mph
Hourly data recorded from LFRN, located miles away from Rennes, France







STORIES FROM OUR PARTNERS